contact:dominique.lefevre@mio.osupytheas.fr, maurice.libes@osupytheas.fr, didier.mallarino@osupytheas.fr
Project:EMSO http://www.emso-fr.org/EMSO-France
Depth: 2436.0 m
Title:EMSO Ligure Ouest : Data MII capteur AQUADOPP
Date,Latitude,Longitude,X_East,Y_North,Z_Up,Amplitude_X,Amplitude_Y,Amplitude_Z,Batterie,SoundSpeed,Heading,Pitch,Roll,Pressure,TIS,Speed,Direction
, degrees North, degrees East, m.s-1, m.s-1,m.s-1, 1, 1, 1, Volt, m.s-1, degree, degree, degree, dbar, degree_C, m.s-1, degree
2022-07-20T00:04:03,42.805,6.029,0.054,0.005,0.01,102.0,105.0,100.0,13.4,1505.2,322.9,-0.7,1.8,2471.103,13.28,0.054,84.7
2022-07-20T00:07:03,42.805,6.029,0.038,0.01,-0.007,102.0,103.0,101.0,13.4,1505.2,320.1,-0.8,1.8,2471.061,13.28,0.039,75.3
2022-07-20T00:10:03,42.805,6.029,0.041,0.009,-0.013,103.0,103.0,101.0,13.3,1505.2,323.7,-0.8,1.8,2471.052,13.28,0.041,77.6
2022-07-20T00:13:03,42.805,6.029,0.031,0.006,-0.014,103.0,103.0,101.0,13.3,1505.2,323.3,-0.8,1.8,2471.08,13.28,0.031,79.0
2022-07-20T00:16:03,42.805,6.029,0.05,0.005,0.01,101.0,103.0,101.0,13.4,1505.2,323.6,-0.8,1.8,2471.077,13.28,0.05,84.3
2022-07-20T00:19:03,42.805,6.029,0.059,-0.004,0.004,102.0,102.0,101.0,13.4,1505.2,332.9,-0.7,1.8,2471.003,13.28,0.059,93.9
2022-07-20T00:22:03,42.805,6.029,0.041,0.002,0.009,103.0,103.0,101.0,13.4,1505.2,328.5,-0.8,1.8,2471.018,13.28,0.041,87.2
2022-07-20T00:25:03,42.805,6.029,0.037,0.013,-0.017,103.0,103.0,100.0,13.4,1505.2,331.3,-0.7,1.8,2471.021,13.28,0.039,70.6
2022-07-20T00:28:03,42.805,6.029,0.022,0.005,-0.023,104.0,102.0,100.0,13.4,1505.2,321.6,-0.7,1.8,2470.998,13.28,0.022,77.2
2022-07-20T00:31:03,42.805,6.029,0.054,0.0,-0.023,102.0,103.0,100.0,13.4,1505.2,322.8,-0.7,1.8,2471.059,13.28,0.053,90.0
2022-07-20T00:34:03,42.805,6.029,0.052,0.016,-0.016,103.0,103.0,101.0,13.3,1505.2,322.0,-0.7,1.8,2471.016,13.28,0.054,72.9
2022-07-20T00:37:03,42.805,6.029,0.043,0.002,0.004,101.0,104.0,101.0,13.4,1505.2,323.4,-0.7,1.8,2471.028,13.28,0.043,87.3
2022-07-20T00:40:03,42.805,6.029,0.063,-0.014,-0.031,104.0,102.0,102.0,13.4,1505.2,332.7,-0.7,1.8,2471.0,13.28,0.064,102.5
2022-07-20T00:43:03,42.805,6.029,0.063,0.021,0.027,102.0,103.0,101.0,13.4,1505.2,319.8,-0.7,1.8,2470.992,13.28,0.066,71.6
2022-07-20T00:46:03,42.805,6.029,0.044,0.014,-0.03,102.0,104.0,100.0,13.4,1505.2,322.3,-0.7,1.8,2471.01,13.28,0.046,72.4
2022-07-20T00:49:03,42.805,6.029,0.031,0.036,-0.006,103.0,102.0,100.0,13.4,1505.2,333.4,-0.7,1.8,2471.025,13.28,0.047,40.7
2022-07-20T00:52:03,42.805,6.029,0.029,0.01,-0.023,103.0,103.0,101.0,13.4,1505.2,328.4,-0.7,1.8,2471.01,13.28,0.03,71.0
2022-07-20T00:55:03,42.805,6.029,0.043,-0.013,-0.034,102.0,102.0,101.0,13.4,1505.2,326.0,-0.7,1.8,2471.018,13.28,0.044,106.8
2022-07-20T00:58:03,42.805,6.029,0.051,0.0,-0.011,102.0,102.0,100.0,13.4,1505.2,331.1,-0.8,1.8,2470.996,13.28,0.051,90.0
2022-07-20T01:04:03,42.805,6.029,0.044,0.0,-0.017,103.0,105.0,104.0,13.4,1505.2,322.6,-0.8,1.8,2471.039,13.28,0.044,90.0
2022-07-20T01:07:03,42.805,6.029,0.047,0.001,-0.001,102.0,103.0,101.0,13.4,1505.2,326.3,-0.8,1.8,2471.036,13.28,0.047,88.8
2022-07-20T01:10:03,42.805,6.029,0.015,0.0,-0.027,103.0,102.0,100.0,13.4,1505.2,326.5,-0.8,1.8,2471.061,13.28,0.015,90.0
2022-07-20T01:13:03,42.805,6.029,0.045,0.029,-0.016,103.0,102.0,100.0,13.4,1505.2,325.3,-0.8,1.8,2471.05,13.28,0.053,57.2
2022-07-20T01:16:03,42.805,6.029,0.03,-0.009,-0.003,102.0,102.0,101.0,13.4,1505.2,333.1,-0.8,1.8,2471.02,13.28,0.031,106.7
2022-07-20T01:19:03,42.805,6.029,0.031,0.013,0.003,102.0,102.0,100.0,13.4,1505.2,328.1,-0.7,1.8,2471.024,13.28,0.033,67.3
2022-07-20T01:22:03,42.805,6.029,0.036,-0.015,-0.044,102.0,103.0,100.0,13.4,1505.2,331.7,-0.8,1.8,2471.032,13.28,0.039,112.6
2022-07-20T01:25:03,42.805,6.029,0.03,0.001,-0.003,103.0,101.0,101.0,13.4,1505.2,333.4,-0.8,1.8,2470.996,13.28,0.03,88.1
2022-07-20T01:28:03,42.805,6.029,0.022,-0.008,-0.027,103.0,103.0,101.0,13.4,1505.2,331.5,-0.8,1.8,2471.008,13.28,0.023,110.0
2022-07-20T01:31:03,42.805,6.029,0.062,-0.025,-0.031,103.0,104.0,100.0,13.4,1505.2,333.9,-0.8,1.8,2471.023,13.28,0.066,112.0
2022-07-20T01:34:03,42.805,6.029,0.039,-0.002,0.009,103.0,101.0,101.0,13.4,1505.2,322.9,-0.7,1.9,2471.037,13.28,0.039,92.9
2022-07-20T01:37:03,42.805,6.029,0.033,0.009,-0.031,101.0,104.0,101.0,13.4,1505.2,328.4,-0.7,1.8,2471.0,13.28,0.034,74.7
2022-07-20T01:40:03,42.805,6.029,0.046,-0.01,-0.015,102.0,104.0,100.0,13.4,1505.2,322.5,-0.8,1.9,2471.006,13.28,0.047,102.3
2022-07-20T01:43:03,42.805,6.029,0.033,-0.003,-0.044,103.0,104.0,100.0,13.4,1505.2,324.2,-0.7,1.8,2470.995,13.28,0.033,95.2
2022-07-20T01:46:03,42.805,6.029,0.017,0.007,-0.021,102.0,102.0,101.0,13.4,1505.2,320.6,-0.8,1.8,2471.004,13.28,0.018,67.6
2022-07-20T01:49:03,42.805,6.029,0.037,0.01,-0.02,103.0,103.0,100.0,13.4,1505.2,322.8,-0.8,1.8,2471.028,13.28,0.038,74.9
2022-07-20T01:52:03,42.805,6.029,0.043,0.009,-0.033,103.0,103.0,100.0,13.3,1505.2,323.9,-0.7,1.8,2471.022,13.28,0.043,78.2
2022-07-20T01:55:03,42.805,6.029,0.029,0.018,-0.021,102.0,103.0,102.0,13.3,1505.2,329.5,-0.8,1.8,2470.991,13.28,0.034,58.2
2022-07-20T01:58:03,42.805,6.029,0.065,-0.001,-0.019,102.0,103.0,102.0,13.4,1505.2,324.2,-0.7,1.8,2470.993,13.28,0.065,90.9
2022-07-20T02:04:03,42.805,6.029,0.039,0.0,-0.016,102.0,103.0,102.0,13.3,1505.2,329.4,-0.7,1.8,2471.047,13.28,0.039,90.0
2022-07-20T02:07:03,42.805,6.029,0.047,0.017,-0.043,103.0,103.0,102.0,13.4,1505.2,326.4,-0.8,1.8,2471.041,13.28,0.049,70.1
2022-07-20T02:10:03,42.805,6.029,0.041,0.021,-0.005,102.0,104.0,101.0,13.4,1505.2,326.5,-0.8,1.8,2471.05,13.28,0.046,62.9
2022-07-20T02:13:03,42.805,6.029,0.043,0.015,0.008,103.0,102.0,101.0,13.4,1505.2,319.0,-0.8,1.8,2471.011,13.28,0.045,70.8
2022-07-20T02:16:03,42.805,6.029,0.036,0.003,-0.012,103.0,104.0,100.0,13.4,1505.2,319.7,-0.7,1.8,2471.006,13.28,0.036,85.2
2022-07-20T02:19:03,42.805,6.029,0.028,0.01,-0.015,101.0,103.0,102.0,13.4,1505.2,330.1,-0.7,1.8,2471.017,13.28,0.029,70.4
2022-07-20T02:22:03,42.805,6.029,0.035,0.007,-0.027,103.0,103.0,99.0,13.4,1505.2,326.3,-0.7,1.8,2470.981,13.28,0.035,78.7
2022-07-20T02:25:03,42.805,6.029,0.06,0.018,-0.014,102.0,103.0,101.0,13.3,1505.2,323.7,-0.7,1.8,2470.991,13.28,0.062,73.3
2022-07-20T02:28:03,42.805,6.029,0.069,0.008,0.002,102.0,103.0,101.0,13.4,1505.2,328.9,-0.8,1.8,2470.976,13.28,0.069,83.4
2022-07-20T02:31:03,42.805,6.029,0.046,0.011,-0.005,103.0,104.0,100.0,13.3,1505.2,320.5,-0.8,1.8,2470.995,13.28,0.047,76.6
2022-07-20T02:34:03,42.805,6.029,0.045,0.009,-0.017,103.0,104.0,100.0,13.4,1505.2,328.1,-0.8,1.9,2471.013,13.28,0.045,78.7
2022-07-20T02:37:03,42.805,6.029,0.034,0.026,0.015,103.0,103.0,100.0,13.4,1505.2,329.5,-0.8,1.8,2471.0,13.28,0.042,52.6
2022-07-20T02:40:03,42.805,6.029,0.047,-0.007,-0.026,103.0,103.0,101.0,13.4,1505.2,324.7,-0.8,1.8,2470.982,13.28,0.047,98.5
2022-07-20T02:43:03,42.805,6.029,0.062,0.003,-0.017,101.0,104.0,101.0,13.4,1505.2,320.8,-0.7,1.8,2470.972,13.28,0.062,87.2
2022-07-20T02:46:03,42.805,6.029,0.052,-0.017,-0.011,102.0,104.0,100.0,13.4,1505.2,326.9,-0.8,1.8,2470.999,13.28,0.054,108.1
2022-07-20T02:49:03,42.805,6.029,0.043,-0.012,-0.043,102.0,102.0,101.0,13.3,1505.2,324.0,-0.8,1.8,2470.995,13.28,0.044,105.6
2022-07-20T02:52:03,42.805,6.029,0.068,0.0,-0.006,103.0,104.0,100.0,13.4,1505.2,321.0,-0.7,1.8,2470.946,13.28,0.067,90.0
2022-07-20T02:55:03,42.805,6.029,0.057,-0.003,-0.012,104.0,104.0,100.0,13.4,1505.2,323.5,-0.7,1.8,2470.992,13.28,0.057,93.0
2022-07-20T02:58:03,42.805,6.029,0.051,-0.005,-0.038,103.0,103.0,100.0,13.3,1505.2,321.4,-0.8,1.8,2470.922,13.28,0.051,95.6
2022-07-20T03:04:03,42.805,6.029,0.036,0.019,-0.02,103.0,104.0,101.0,13.4,1505.2,321.1,-0.8,1.9,2471.015,13.28,0.04,62.2
2022-07-20T03:07:03,42.805,6.029,0.025,-0.005,-0.026,103.0,103.0,102.0,13.4,1505.2,324.2,-0.7,1.8,2471.014,13.28,0.025,101.3
2022-07-20T03:10:03,42.805,6.029,0.022,0.014,-0.015,102.0,104.0,101.0,13.4,1505.2,322.4,-0.8,1.9,2471.003,13.28,0.026,57.5
2022-07-20T03:13:03,42.805,6.029,0.044,0.012,0.031,102.0,104.0,101.0,13.4,1505.2,334.4,-0.7,1.8,2471.011,13.28,0.045,74.7
2022-07-20T03:16:03,42.805,6.029,0.031,-0.007,-0.043,101.0,103.0,101.0,13.3,1505.2,320.8,-0.8,1.8,2471.013,13.28,0.031,102.7
2022-07-20T03:19:03,42.805,6.029,0.043,0.004,-0.017,103.0,101.0,102.0,13.3,1505.2,324.0,-0.7,1.8,2470.969,13.28,0.043,84.7
2022-07-20T03:22:03,42.805,6.029,0.045,-0.014,-0.024,103.0,104.0,101.0,13.4,1505.2,324.6,-0.7,1.8,2470.955,13.28,0.047,107.3
2022-07-20T03:25:03,42.805,6.029,0.058,0.0,-0.01,103.0,103.0,101.0,13.4,1505.2,323.6,-0.7,1.8,2470.931,13.28,0.057,90.0
2022-07-20T03:28:03,42.805,6.029,0.045,-0.008,0.004,102.0,103.0,101.0,13.4,1505.2,325.7,-0.7,1.8,2470.963,13.28,0.045,100.1
2022-07-20T03:31:03,42.805,6.029,0.045,-0.002,-0.051,102.0,103.0,102.0,13.3,1505.2,325.5,-0.8,1.8,2470.924,13.28,0.045,92.5
2022-07-20T03:34:03,42.805,6.029,0.063,-0.005,-0.013,103.0,107.0,101.0,13.4,1505.2,330.5,-0.7,1.8,2470.972,13.28,0.063,94.5
2022-07-20T03:37:03,42.805,6.029,0.051,-0.005,-0.007,102.0,103.0,100.0,13.4,1505.2,329.6,-0.8,1.8,2470.938,13.28,0.051,95.6
2022-07-20T03:40:03,42.805,6.029,0.058,0.005,-0.026,102.0,105.0,101.0,13.4,1505.2,326.6,-0.7,1.8,2470.94,13.28,0.058,85.1
2022-07-20T03:43:03,42.805,6.029,0.066,-0.002,-0.008,103.0,102.0,100.0,13.4,1505.2,333.4,-0.7,1.8,2470.928,13.28,0.066,91.7
2022-07-20T03:46:03,42.805,6.029,0.048,0.001,-0.001,101.0,103.0,101.0,13.4,1505.2,325.2,-0.8,1.8,2470.967,13.28,0.048,88.8
2022-07-20T03:49:03,42.805,6.029,0.049,-0.025,-0.024,102.0,103.0,100.0,13.4,1505.2,327.8,-0.8,1.8,2470.945,13.28,0.055,117.0
2022-07-20T03:52:03,42.805,6.029,0.063,-0.006,0.033,104.0,102.0,101.0,13.4,1505.2,324.5,-0.8,1.8,2470.885,13.28,0.063,95.4
2022-07-20T03:55:03,42.805,6.029,0.078,0.005,-0.027,102.0,104.0,100.0,13.3,1505.2,321.8,-0.7,1.8,2470.98,13.28,0.078,86.3
2022-07-20T03:58:03,42.805,6.029,0.053,-0.02,-0.016,102.0,103.0,100.0,13.4,1505.2,324.6,-0.8,1.8,2470.962,13.28,0.056,110.7
2022-07-20T04:04:03,42.805,6.029,0.045,-0.037,-0.071,102.0,104.0,100.0,13.4,1505.2,327.5,-0.8,1.8,2470.992,13.28,0.058,129.4
2022-07-20T04:07:03,42.805,6.029,0.074,-0.016,0.001,103.0,104.0,100.0,13.4,1505.2,324.7,-0.8,1.8,2470.949,13.28,0.075,102.2
2022-07-20T04:10:03,42.805,6.029,0.076,-0.017,-0.019,102.0,103.0,101.0,13.4,1505.2,322.2,-0.8,1.8,2470.981,13.28,0.077,102.6
2022-07-20T04:13:03,42.805,6.029,0.04,-0.002,-0.034,102.0,103.0,100.0,13.3,1505.2,327.5,-0.8,1.8,2470.945,13.28,0.04,92.9
2022-07-20T04:16:03,42.805,6.029,0.048,-0.02,-0.027,103.0,102.0,100.0,13.3,1505.2,330.5,-0.8,1.8,2470.947,13.28,0.052,112.6
2022-07-20T04:19:03,42.805,6.029,0.062,-0.015,-0.011,102.0,103.0,101.0,13.4,1505.2,327.4,-0.8,1.8,2470.959,13.28,0.063,103.6
2022-07-20T04:22:03,42.805,6.029,0.045,-0.01,-0.024,101.0,104.0,100.0,13.4,1505.2,329.7,-0.8,1.8,2470.952,13.28,0.046,102.5
2022-07-20T04:25:03,42.805,6.029,0.074,-0.033,-0.035,103.0,101.0,101.0,13.3,1505.2,329.7,-0.7,1.8,2470.93,13.28,0.081,114.0
2022-07-20T04:28:03,42.805,6.029,0.045,-0.008,0.01,103.0,104.0,101.0,13.3,1505.2,327.8,-0.8,1.8,2470.934,13.28,0.045,100.1
2022-07-20T04:31:03,42.805,6.029,0.063,-0.052,-0.021,102.0,102.0,101.0,13.4,1505.2,328.2,-0.8,1.8,2470.94,13.28,0.081,129.5
2022-07-20T04:34:03,42.805,6.029,0.053,-0.012,0.001,103.0,103.0,100.0,13.4,1505.2,320.4,-0.8,1.8,2470.928,13.28,0.054,102.8
2022-07-20T04:37:03,42.805,6.029,0.047,-0.025,-0.033,102.0,103.0,100.0,13.4,1505.2,327.7,-0.8,1.8,2470.942,13.28,0.053,118.0
2022-07-20T04:40:03,42.805,6.029,0.058,-0.019,-0.043,103.0,103.0,101.0,13.4,1505.2,327.8,-0.8,1.8,2470.912,13.28,0.061,108.1
2022-07-20T04:43:03,42.805,6.029,0.047,-0.017,-0.046,103.0,103.0,101.0,13.4,1505.2,329.2,-0.7,1.8,2470.918,13.28,0.049,109.9
2022-07-20T04:46:03,42.805,6.029,0.055,-0.012,-0.013,103.0,102.0,101.0,13.3,1505.2,327.5,-0.7,1.8,2470.903,13.28,0.056,102.3
2022-07-20T04:49:03,42.805,6.029,0.042,-0.015,-0.04,103.0,103.0,101.0,13.3,1505.2,328.2,-0.8,1.8,2470.925,13.28,0.044,109.6
2022-07-20T04:52:03,42.805,6.029,0.051,-0.016,-0.034,102.0,103.0,101.0,13.4,1505.2,321.8,-0.8,1.8,2470.923,13.28,0.053,107.4
2022-07-20T04:55:03,42.805,6.029,0.052,-0.006,-0.019,102.0,102.0,101.0,13.3,1505.2,332.4,-0.8,1.9,2470.933,13.28,0.052,96.6
2022-07-20T04:58:03,42.805,6.029,0.046,-0.011,-0.046,102.0,103.0,100.0,13.4,1505.2,324.6,-0.8,1.9,2470.911,13.28,0.047,103.4
2022-07-20T05:04:03,42.805,6.029,0.062,-0.015,0.003,104.0,102.0,100.0,13.4,1505.2,331.0,-0.8,1.8,2470.929,13.28,0.063,103.6
2022-07-20T05:07:03,42.805,6.029,0.042,0.0,-0.023,102.0,103.0,101.0,13.4,1505.2,333.6,-0.8,1.8,2470.969,13.28,0.042,90.0
2022-07-20T05:10:03,42.805,6.029,0.062,0.018,-0.03,103.0,103.0,100.0,13.4,1505.2,323.8,-0.8,1.8,2470.979,13.28,0.064,73.8
2022-07-20T05:13:03,42.805,6.029,0.067,-0.005,0.002,102.0,103.0,100.0,13.4,1505.2,329.3,-0.7,1.8,2470.928,13.28,0.067,94.3
2022-07-20T05:16:03,42.805,6.029,0.044,-0.012,-0.005,102.0,101.0,100.0,13.4,1505.2,328.8,-0.8,1.8,2470.914,13.28,0.045,105.3
2022-07-20T05:19:03,42.805,6.029,0.049,0.0,-0.006,103.0,102.0,100.0,13.4,1505.2,320.8,-0.8,1.8,2470.931,13.28,0.049,90.0
2022-07-20T05:22:03,42.805,6.029,0.042,-0.003,0.003,103.0,103.0,102.0,13.3,1505.2,329.6,-0.7,1.8,2470.94,13.28,0.042,94.1
2022-07-20T05:25:03,42.805,6.029,0.029,-0.006,0.006,103.0,104.0,101.0,13.3,1505.2,328.4,-0.8,1.9,2470.915,13.28,0.029,101.7
2022-07-20T05:28:03,42.805,6.029,0.044,-0.019,-0.018,103.0,102.0,100.0,13.4,1505.2,327.0,-0.8,1.8,2470.951,13.28,0.047,113.4
2022-07-20T05:31:03,42.805,6.029,0.073,-0.024,-0.027,102.0,102.0,100.0,13.3,1505.2,332.4,-0.8,1.8,2470.918,13.28,0.076,108.2
2022-07-20T05:34:03,42.805,6.029,0.052,0.004,-0.014,102.0,102.0,100.0,13.4,1505.2,323.9,-0.7,1.8,2470.905,13.28,0.052,85.6
2022-07-20T05:37:03,42.805,6.029,0.039,0.004,-0.023,103.0,103.0,101.0,13.3,1505.2,321.5,-0.7,1.8,2470.917,13.28,0.039,84.1
2022-07-20T05:40:03,42.805,6.029,0.017,-0.017,-0.026,103.0,102.0,100.0,13.4,1505.2,324.8,-0.8,1.8,2470.898,13.28,0.024,135.0
2022-07-20T05:43:03,42.805,6.029,0.045,-0.011,-0.012,102.0,103.0,100.0,13.3,1505.2,322.9,-0.8,1.8,2470.925,13.28,0.046,103.7
2022-07-20T05:46:03,42.805,6.029,0.079,-0.01,0.025,102.0,103.0,101.0,13.3,1505.2,323.5,-0.7,1.8,2470.889,13.28,0.079,97.2
2022-07-20T05:49:03,42.805,6.029,0.055,0.005,-0.008,102.0,102.0,101.0,13.3,1505.2,327.3,-0.8,1.8,2470.867,13.28,0.055,84.8
2022-07-20T05:52:03,42.805,6.029,0.055,-0.018,-0.02,103.0,103.0,100.0,13.4,1505.2,324.2,-0.7,1.8,2470.926,13.28,0.057,108.1
2022-07-20T05:55:03,42.805,6.029,0.06,0.006,0.015,103.0,102.0,101.0,13.4,1505.2,323.0,-0.8,1.8,2470.91,13.28,0.06,84.3
2022-07-20T05:58:03,42.805,6.029,0.07,-0.022,-0.016,103.0,102.0,101.0,13.4,1505.2,327.4,-0.7,1.8,2470.923,13.28,0.073,107.4
2022-07-20T06:04:03,42.805,6.029,0.05,-0.008,-0.01,102.0,102.0,100.0,13.4,1505.2,323.7,-0.8,1.8,2470.936,13.28,0.05,99.1
2022-07-20T06:07:03,42.805,6.029,0.054,-0.018,-0.034,104.0,102.0,101.0,13.4,1505.2,329.0,-0.8,1.8,2470.922,13.28,0.056,108.4
2022-07-20T06:10:03,42.805,6.029,0.04,-0.007,-0.017,104.0,102.0,101.0,13.4,1505.2,322.1,-0.7,1.8,2470.908,13.28,0.04,99.9
2022-07-20T06:13:03,42.805,6.029,0.032,0.003,-0.007,103.0,103.0,101.0,13.4,1505.2,328.4,-0.7,1.8,2470.934,13.28,0.032,84.6
2022-07-20T06:16:03,42.805,6.029,0.04,-0.001,-0.01,102.0,103.0,102.0,13.4,1505.2,329.8,-0.8,1.8,2470.921,13.28,0.04,91.4
2022-07-20T06:19:03,42.805,6.029,0.088,-0.001,-0.008,102.0,102.0,102.0,13.3,1505.2,319.6,-0.8,1.9,2470.919,13.28,0.088,90.6
2022-07-20T06:22:03,42.805,6.029,0.044,0.004,0.009,102.0,103.0,100.0,13.4,1505.2,318.7,-0.8,1.8,2470.894,13.28,0.044,84.8
2022-07-20T06:25:03,42.805,6.029,0.047,-0.026,-0.017,103.0,103.0,101.0,13.4,1505.2,328.3,-0.8,1.8,2470.905,13.28,0.053,118.9
2022-07-20T06:28:03,42.805,6.029,0.049,-0.001,-0.006,102.0,102.0,101.0,13.4,1505.2,320.6,-0.8,1.8,2470.896,13.28,0.049,91.2
2022-07-20T06:31:03,42.805,6.029,0.057,-0.018,-0.043,103.0,102.0,100.0,13.4,1505.2,331.8,-0.8,1.8,2470.92,13.28,0.059,107.5
2022-07-20T06:34:03,42.805,6.029,0.056,-0.024,-0.034,103.0,102.0,100.0,13.3,1505.2,320.1,-0.8,1.8,2470.868,13.28,0.06,113.2
2022-07-20T06:37:03,42.805,6.029,0.056,-0.005,-0.005,102.0,102.0,101.0,13.4,1505.2,327.8,-0.8,1.8,2470.86,13.28,0.056,95.1
2022-07-20T06:40:03,42.805,6.029,0.033,-0.01,-0.036,102.0,103.0,101.0,13.4,1505.2,327.9,-0.7,1.8,2470.878,13.28,0.034,106.9
2022-07-20T06:43:03,42.805,6.029,0.06,-0.019,-0.021,101.0,104.0,100.0,13.3,1505.2,326.0,-0.7,1.8,2470.915,13.28,0.062,107.6
2022-07-20T06:46:03,42.805,6.029,0.057,-0.006,-0.016,103.0,103.0,101.0,13.4,1505.2,323.6,-0.7,1.8,2470.881,13.28,0.057,96.0
2022-07-20T06:49:03,42.805,6.029,0.063,0.013,-0.013,102.0,103.0,101.0,13.4,1505.2,331.8,-0.8,1.8,2470.909,13.28,0.064,78.3
2022-07-20T06:52:03,42.805,6.029,0.055,-0.005,-0.013,103.0,102.0,101.0,13.4,1505.2,331.4,-0.8,1.8,2470.882,13.28,0.055,95.2
2022-07-20T06:55:03,42.805,6.029,0.06,-0.026,-0.076,102.0,102.0,101.0,13.3,1505.2,331.6,-0.7,1.8,2470.859,13.28,0.065,113.4
2022-07-20T06:58:03,42.805,6.029,0.06,-0.015,0.007,102.0,102.0,101.0,13.4,1505.2,332.4,-0.8,1.8,2470.855,13.28,0.061,104.0
2022-07-20T07:04:03,42.805,6.029,0.079,-0.014,-0.012,101.0,102.0,100.0,13.4,1505.2,324.1,-0.8,1.8,2470.928,13.28,0.08,100.0
2022-07-20T07:07:03,42.805,6.029,0.058,-0.025,-0.049,103.0,101.0,100.0,13.3,1505.2,320.4,-0.8,1.8,2470.922,13.28,0.063,113.3
2022-07-20T07:10:03,42.805,6.029,0.057,-0.032,-0.054,102.0,103.0,100.0,13.4,1505.2,327.6,-0.8,1.8,2470.928,13.28,0.065,119.3
2022-07-20T07:13:03,42.805,6.029,0.047,0.014,0.008,103.0,102.0,100.0,13.4,1505.2,319.4,-0.8,1.8,2470.938,13.28,0.049,73.4
2022-07-20T07:16:03,42.805,6.029,0.042,-0.018,-0.021,103.0,102.0,101.0,13.4,1505.2,329.2,-0.8,1.8,2470.89,13.28,0.045,113.2
2022-07-20T07:19:03,42.805,6.029,0.063,-0.032,-0.029,101.0,102.0,100.0,13.4,1505.2,325.4,-0.8,1.8,2470.893,13.28,0.07,116.9
2022-07-20T07:22:03,42.805,6.029,0.047,-0.015,-0.026,102.0,102.0,101.0,13.4,1505.2,333.1,-0.8,1.8,2470.881,13.28,0.049,107.7
2022-07-20T07:25:03,42.805,6.029,0.061,-0.036,0.001,102.0,102.0,100.0,13.3,1505.2,333.6,-0.8,1.8,2470.872,13.28,0.07,120.5
2022-07-20T07:28:03,42.805,6.029,0.05,-0.013,-0.015,102.0,103.0,101.0,13.4,1505.2,324.6,-0.7,1.8,2470.898,13.28,0.051,104.6
2022-07-20T07:31:03,42.805,6.029,0.039,0.004,-0.034,101.0,104.0,100.0,13.4,1505.2,328.3,-0.7,1.8,2470.881,13.28,0.039,84.1
2022-07-20T07:34:03,42.805,6.029,0.054,0.006,0.015,101.0,102.0,100.0,13.4,1505.2,324.1,-0.8,1.8,2470.905,13.28,0.054,83.7
2022-07-20T07:37:03,42.805,6.029,0.065,-0.018,-0.018,102.0,102.0,101.0,13.4,1505.2,321.5,-0.7,1.8,2470.874,13.28,0.067,105.5
2022-07-20T07:40:03,42.805,6.029,0.065,-0.022,-0.009,102.0,103.0,100.0,13.3,1505.2,330.5,-0.7,1.8,2470.894,13.28,0.068,108.7
2022-07-20T07:43:03,42.805,6.029,0.046,-0.018,-0.003,102.0,102.0,100.0,13.4,1505.2,329.1,-0.7,1.8,2470.864,13.28,0.049,111.4
2022-07-20T07:46:03,42.805,6.029,0.052,0.0,0.005,103.0,102.0,100.0,13.4,1505.2,329.8,-0.8,1.8,2470.855,13.28,0.052,90.0
2022-07-20T07:49:03,42.805,6.029,0.04,-0.008,-0.015,102.0,102.0,99.0,13.4,1505.2,328.9,-0.7,1.8,2470.889,13.28,0.04,101.3
2022-07-20T07:52:03,42.805,6.029,0.026,0.027,0.0,102.0,103.0,100.0,13.4,1505.2,324.0,-0.7,1.8,2470.873,13.28,0.037,43.9
2022-07-20T07:55:03,42.805,6.029,0.044,-0.016,-0.013,102.0,102.0,101.0,13.3,1505.2,325.7,-0.8,1.8,2470.847,13.28,0.046,110.0
2022-07-20T07:58:03,42.805,6.029,0.043,-0.022,-0.025,103.0,102.0,101.0,13.4,1505.2,323.6,-0.8,1.8,2470.838,13.28,0.048,117.1
2022-07-20T08:04:03,42.805,6.029,0.022,-0.024,-0.03,102.0,102.0,100.0,13.3,1505.2,331.1,-0.8,1.8,2470.919,13.28,0.032,137.5
2022-07-20T08:07:03,42.805,6.029,0.045,-0.008,-0.042,102.0,104.0,100.0,13.3,1505.2,332.9,-0.8,1.8,2470.915,13.28,0.045,100.1
2022-07-20T08:10:03,42.805,6.029,0.053,-0.008,-0.003,103.0,101.0,100.0,13.3,1505.2,321.9,-0.8,1.8,2470.908,13.28,0.053,98.6
2022-07-20T08:13:03,42.805,6.029,0.048,-0.015,-0.017,102.0,103.0,100.0,13.3,1505.2,322.2,-0.8,1.8,2470.875,13.28,0.05,107.4
2022-07-20T08:16:03,42.805,6.029,0.067,-0.035,-0.028,102.0,102.0,100.0,13.4,1505.2,326.3,-0.8,1.8,2470.911,13.28,0.075,117.6
2022-07-20T08:19:03,42.805,6.029,0.049,-0.015,-0.006,102.0,102.0,100.0,13.3,1505.2,320.0,-0.8,1.8,2470.91,13.28,0.051,107.0
2022-07-20T08:22:03,42.805,6.029,0.041,-0.003,-0.019,102.0,103.0,100.0,13.3,1505.2,322.4,-0.8,1.8,2470.9,13.28,0.041,94.2
2022-07-20T08:25:03,42.805,6.029,0.026,-0.02,-0.033,102.0,102.0,100.0,13.4,1505.2,334.1,-0.8,1.8,2470.882,13.28,0.032,127.6
2022-07-20T08:28:03,42.805,6.029,0.044,-0.008,0.016,103.0,103.0,100.0,13.4,1505.2,333.9,-0.8,1.8,2470.882,13.28,0.044,100.3
2022-07-20T08:31:03,42.805,6.029,0.063,-0.014,-0.021,103.0,102.0,100.0,13.4,1505.2,332.1,-0.7,1.8,2470.867,13.28,0.064,102.5
2022-07-20T08:34:03,42.805,6.029,0.053,-0.02,-0.033,103.0,102.0,100.0,13.4,1505.2,322.3,-0.8,1.8,2470.887,13.28,0.056,110.7
2022-07-20T08:37:03,42.805,6.029,0.048,-0.001,-0.01,102.0,103.0,101.0,13.3,1505.2,324.0,-0.7,1.8,2470.911,13.28,0.048,91.2
2022-07-20T08:40:03,42.805,6.029,0.041,-0.024,-0.053,102.0,102.0,100.0,13.4,1505.2,326.9,-0.8,1.8,2470.846,13.28,0.047,120.3
2022-07-20T08:43:03,42.805,6.029,0.039,0.0,-0.016,103.0,102.0,100.0,13.4,1505.2,320.2,-0.8,1.8,2470.886,13.28,0.039,90.0
2022-07-20T08:46:03,42.805,6.029,0.049,-0.02,-0.053,102.0,102.0,101.0,13.4,1505.2,324.5,-0.7,1.8,2470.899,13.28,0.052,112.2
2022-07-20T08:49:03,42.805,6.029,0.057,-0.009,-0.015,103.0,102.0,100.0,13.4,1505.2,323.6,-0.7,1.8,2470.856,13.28,0.057,99.0
2022-07-20T08:52:03,42.805,6.029,0.029,-0.022,-0.025,102.0,102.0,100.0,13.4,1505.2,328.2,-0.8,1.8,2470.896,13.28,0.036,127.2
2022-07-20T08:55:03,42.805,6.029,0.063,-0.016,-0.031,102.0,102.0,101.0,13.3,1505.2,320.3,-0.8,1.8,2470.909,13.28,0.064,104.2
2022-07-20T08:58:03,42.805,6.029,0.013,0.019,-0.011,102.0,103.0,100.0,13.4,1505.2,320.7,-0.8,1.8,2470.867,13.28,0.023,34.4
2022-07-20T09:04:03,42.805,6.029,0.022,0.004,-0.01,103.0,101.0,100.0,13.4,1505.2,331.6,-0.8,1.8,2470.949,13.28,0.022,79.7
2022-07-20T09:07:03,42.805,6.029,0.016,-0.019,-0.041,102.0,103.0,100.0,13.3,1505.2,321.8,-0.8,1.8,2470.969,13.28,0.024,139.9
2022-07-20T09:10:03,42.805,6.029,0.042,-0.002,-0.01,102.0,102.0,100.0,13.4,1505.2,324.9,-0.7,1.9,2470.938,13.28,0.042,92.7
2022-07-20T09:13:03,42.805,6.029,0.046,-0.021,-0.036,101.0,102.0,101.0,13.4,1505.2,330.1,-0.8,1.8,2470.88,13.28,0.05,114.5
2022-07-20T09:16:03,42.805,6.029,0.019,-0.005,-0.016,102.0,103.0,100.0,13.4,1505.2,327.0,-0.8,1.8,2470.909,13.28,0.019,104.7
2022-07-20T09:19:03,42.805,6.029,0.014,0.007,-0.029,102.0,102.0,100.0,13.4,1505.2,329.1,-0.8,1.8,2470.916,13.28,0.015,63.4
2022-07-20T09:22:03,42.805,6.029,0.04,-0.013,-0.048,102.0,102.0,101.0,13.4,1505.2,332.6,-0.8,1.8,2470.956,13.28,0.042,108.0
2022-07-20T09:25:03,42.805,6.029,0.044,-0.026,-0.01,102.0,103.0,101.0,13.3,1505.2,330.1,-0.8,1.8,2470.918,13.28,0.051,120.6
2022-07-20T09:28:03,42.805,6.029,0.053,-0.009,-0.021,102.0,102.0,100.0,13.3,1505.2,323.2,-0.8,1.9,2470.94,13.28,0.053,99.6
2022-07-20T09:31:03,42.805,6.029,0.039,-0.012,-0.017,102.0,102.0,100.0,13.3,1505.2,328.1,-0.7,1.8,2470.882,13.28,0.04,107.1
2022-07-20T09:34:03,42.805,6.029,0.048,-0.002,-0.031,102.0,102.0,101.0,13.3,1505.2,322.6,-0.8,1.8,2470.918,13.28,0.048,92.4
2022-07-20T09:37:03,42.805,6.029,0.042,-0.019,-0.038,102.0,102.0,100.0,13.3,1505.2,332.9,-0.8,1.8,2470.957,13.28,0.046,114.3
2022-07-20T09:40:03,42.805,6.029,0.038,-0.026,-0.016,102.0,102.0,100.0,13.4,1505.2,320.8,-0.8,1.8,2470.915,13.28,0.046,124.4
2022-07-20T09:43:03,42.805,6.029,0.045,-0.012,-0.027,102.0,102.0,100.0,13.4,1505.2,323.4,-0.8,1.8,2470.916,13.28,0.046,104.9
2022-07-20T09:46:03,42.805,6.029,0.054,-0.023,-0.029,102.0,102.0,100.0,13.4,1505.2,320.5,-0.8,1.8,2470.899,13.28,0.058,113.1
2022-07-20T09:49:03,42.805,6.029,0.036,-0.013,-0.01,101.0,102.0,101.0,13.4,1505.2,332.9,-0.8,1.8,2470.886,13.28,0.038,109.9
2022-07-20T09:52:03,42.805,6.029,0.031,0.002,-0.01,103.0,102.0,100.0,13.4,1505.2,327.6,-0.7,1.8,2470.944,13.28,0.031,86.3
2022-07-20T09:55:03,42.805,6.029,0.04,-0.022,-0.016,103.0,102.0,100.0,13.3,1505.2,322.6,-0.8,1.8,2470.916,13.28,0.045,118.8
2022-07-20T09:58:03,42.805,6.029,0.058,0.004,-0.004,102.0,102.0,100.0,13.4,1505.2,325.2,-0.8,1.8,2470.935,13.28,0.058,86.1